Погода в Балхаше

Хотите узнать прогноз погоды в Балхаше? Тогда Вам сюда: Погода в Балхаше

Поиск расширенной информации на нашем сайте:

Полезная информация:

Новости сайта



02.01.2020
Опубликован Долгосрочный прогноз погоды по городам России и ближнего зарубежья на январь 2020 года.
Карты: Прогноз на январь и февраль 2020 года, Сравнение прогнозируемой аномалии приземной температуры воздуха на январь 2020 года по разным моделям.




Погода в Балхаше - сегодня

Время (UTC), дата Ветер
(°,м/с) 
Видим.   Явления Облачность Т
(°С)
Тd
(°С)
f(%) Тe
(°С)
Pmin
(гПа)
dP
(гПа)
Po
(мм)
O2
(г/м3)
Тmin Tmax R s Состояние
почвы
03 21.09.20 180 (Ю) 20000 м    6/0 средняя 
[Ac trans]
+14.8 +9.9 72 +17  1011.5  -2.7  728  276           
06 21.09.20 190 (Ю) 20000 м    5/0 верхняя 
[Ci fib]
+17.6 +6.2 47 +18  1011.3  0.1  728  275  +11.6         
09 21.09.20 200 (Ю) 20000 м    ясно 
+18.4 +7.3 48 +18  1010.6  -0.5  728  273           
12 21.09.20 230 (ЮЗ) 20000 м    3/0 верхняя 
[Ci fib]
+20.6 +3.4 32 +21  1011.7  1.3  729  272           
15 21.09.20 310 (СЗ) 10 км    ясно 
+16 -0.7 32 +16  1015.5  731  278    +22.3       
03 22.09.20 320 (СЗ) 20000 м    ясно 
+10.5 -0.3 47 +10  1020.1  3.6  734  285           
06 22.09.20 230 (ЮЗ) 20000 м    9/0 верхняя 
[Cs]
+14.9 -0.1 36 +15  1019.2  -0.2  734  280  +9.7         
09 22.09.20 210 (ЮЗ) 20000 м    6/0 верхняя 
[Cs]
+14.8 +4.1 49 +14  1017.9  -1.2  733  279           
12 22.09.20 250 (З) 20000 м    3/0 верхняя 
[Ci fib]
+15.5 -4 26 +15  1017.5  -0.4  732  280           
15 22.09.20 290 (З) 10 км    ясно 
+11.9 -4.3 32 +12  1019.6  1.5  734  284    +17       
03 23.09.20 250 (З) 20000 м    1/0 верхняя 
[Ci fib]
+13 -3.1 32 +12  1019.4  -0.1  733  282           
06 23.09.20 230 (ЮЗ) 20000 м    9/0 верхняя 
[Ci sp]
+14.4 +2.3 44 +14  1018.4  -0.7  733  280  +10.9         
09 23.09.20 200 (Ю) 10  20000 м    9/0 верхняя 
[Ci sp]
+15.4 +4.4 48 +14  1015.2  -2.9  731  278           
12 23.09.20 200 (Ю) 10  20000 м    10/0 средняя, верхняя 
[As op|Cc]
+15.6 +6.3 54 +14  1012.8  -2.3  729  277           
15 23.09.20 220 (ЮЗ) 10 км    10/0 средняя 
[As op]
+15.6 +10.8 73 +18  1012.4  -0.3  729  276    +16.5       
03 24.09.20 280 (З) 7{19}  10 км  слаб. ливневой дождь  10/10 600 м кучево-дожд. 
[Cb cap]
+13.6 +0.3 40 +12  1009.3  -3.3  726  279           
06 24.09.20 300 (СЗ) 20000 м  {ливн. осадки}  3/3 1000 м 
[Cu med, cong]
+14.6 -4.9 26 +14  1011.9  2.6  728  279  +13.5    0.0     
09 24.09.20 270 (З) 20000 м    3/3 1000 м 
[Cu med, cong]
+17 -6.2 20 +17  1012.5  0.9  729  277           
12 24.09.20 290 (З) 20000 м    1/1 1000 м 
[Cu hum]
+16.5 -5.4 22 +16  1014.6  1.9  730  278           
15 24.09.20 320 (СЗ) 10 км    ясно 
+12 -4.1 32 +11  1018.1  2.7  732  283    +18  0.0     
03 25.09.20 340 (С) 20000 м    ясно 
+6.1 +1.7 73 +5  1023.5  4.5  736  290           
06 25.09.20 320 (СЗ) 20000 м    8/8 1000 м 
[Sc]
+11 -1.3 42 +11  1022.5  -0.3  736  285  +3.3         
09 25.09.20 310 (СЗ) 20000 м    8/8 1000 м 
[Sc]
+13.4 -3.2 31 +13  1021.4  -0.7  735  283           
12 25.09.20 020 (С) 20000 м    6/6 1000 м 
[Sc]
+14 -3.7 29 +14  1021.5  0.1  735  282           
15 25.09.20 030 (СВ) 10 км    1/0 средняя 
[Ac lent]
+9.3 -1.5 47 +8  1023.9  1.6  736  287    +15.2       
Время (UTC), дата Ветер
(°,м/с) 
Видим.   Явления Облачность Т
(°С)
Тd
(°С)
f(%) Тe
(°С)
Pmin
(гПа)
dP
(гПа)
Po
(мм)
O2
(г/м3)
Тmin Tmax R s Состояние
почвы

Для получения пояснительной информации подведите курсор к названию столбца.

ПОГОДА в Балхаше - архив

Всё, что Вы хотите узнать о погоде в Балхаше - удобно и подробно!

Выберите нужную дату (начиная с 1 января 2019* года) и нажмите кнопку "Найти".
Будут отображены архивные сводки погоды по пункту Балхаш, начиная с указанной даты.


Отображать данные в формате CSV (для использования в таблицах Excel)


Внимание! Наш архив погоды предназначен исключительно для личного некоммерческого использования в познавательных целях. Если Вам необходимы официальные справки о состоянии погоды (для производственных, юридических, коммерческих и т.п. целей), обращайтесь в органы Росгидромета.

*Примечание: данная дата относится к архиву по метеостанциям СССР (Россия, СНГ, Балтия).
Архив по метеостанциям Зарубежной Европы и Азии (кроме Китая) хранится 10 дней, по другим регионам земного шара (Китай, Африка, Америка, Австралия, Океания) - 1 день.

Балхаш - район местоположения метеостанции


Название, широта, долгота, высота метеостанции:
Балхаш 46.8°ш. 75.1°д. 350 м над ур. моря [Казахстан]

Дополнительная информация

В oтличие oт бoльшинства пoгoдных сайтoв мы публикуем пoдрoбную метеoинфoрмацию в детальнoм прoфессиoнальнoм фoрмате.

Характеристики температуры и влажнoсти вoздуха измеряются на высoте 2 м в тени вдали oт зданий и деревьев.
Скoрoсть ветра измеряется на высoте 10 м (на урoвне рoста челoвека скoрoсть ветра ниже в 1.5-2 раза). Если метеoстанция нахoдится в гoрoде или в лесу, тo скoрoсть ветра занижена на 2-4 м/с пo сравнению с oткрытым местoм. Скoрoсть ветра над акватoриями крупных рек и oзёр, а также на вершинах хoлмoв на 2-5 м/с выше, чем в oбычных услoвиях.
Атмoсфернoе давление в разных тoчках местнoсти мoжет значительнo oтличаться oт давления на метеoстанции, в зависимoсти oт услoвий рельефа (при пoдъёме на 10 м давление пoнижается примернo на 1 мм рт.ст.).